User: anonymous
Location: Unspecified
(0.0000°N, 0.0000°E)
Time: 06:18:37
(UTC+00:00)
Language:

SR - Orbit

View from above orbital plane
View from above orbital plane
View from above satellite
View from above satellite

Ground track
Ground track

The orbit data is extracted from the following two-line orbital elements,

1 00046U 60007B   14252.96282466  .00001139  00000-0  22467-3 0  7312
2 00046 066.6937 337.7693 0221932 261.6494 095.9878 14.47812476833787
Epoch (UTC): 09 September 2014 23:06:28
Eccentricity: 0.0221932
inclination: 66.6937°
perigee height: 575 km
apogee height: 890 km
right ascension of ascending node: 337.7693°
argument of perigee: 261.6494°
revolutions per day: 14.47812476
mean anomaly at epoch: 95.9878°
orbit number at epoch: 83378

The dashed part of the orbit path shows where the satellite is in the earth's shadow,  

DLR